Regional Weather Roundup
Issued by NWS

Home | Current Version | Previous Version | Text Only | Print | Product List | Glossary Off
Versions: 1 2 3 4 5 6 7 8 9 10 11 12 13 14 15 16 17 18 19 20 21 22 23 24 25 26 27 28 29 30 31 32 33 34 35 36 37 38 39 40 41 42 43 44 45 46 47 48 49 50

000
ASUS43 KOAX 151610
RWRNE

WEATHER ROUNDUP FOR NEBRASKA
NATIONAL WEATHER SERVICE OMAHA NE
1100 AM CDT MON SEP 15 2014

NOTES: SATELLITE DATA IS BEING USED TO AUGMENT CLOUD COVER ABOVE
       12000 FEET.
       "FAIR" INDICATES FEW OR NO CLOUDS BELOW 12,000 FEET WITH NO
       SIGNIFICANT WEATHER AND/OR OBSTRUCTIONS TO VISIBILITY.

  * THESE STATIONS DO NOT REPORT WEATHER SUCH AS RAIN...SNOW OR FOG.

NEZ001>004-019>022-054>056-151700-
NEBRASKA PANHANDLE

CITY           SKY/WX    TMP DP  RH WIND       PRES   REMARKS
SCOTTSBLUFF    SUNNY     51  42  71 MISG      30.34S
ALLIANCE       SUNNY     52  38  58 SE3       30.33R
CHADRON        SUNNY     53  42  66 S6        30.31F
KIMBALL        SUNNY     53  44  71 CALM      30.34S
SIDNEY         PTSUNNY   51  42  71 CALM      30.36R
$$

NEZ057>060-069>072-079>082-151700-
SOUTHWEST NEBRASKA

CITY           SKY/WX    TMP DP  RH WIND       PRES   REMARKS
NORTH PLATTE   HAZE      59  42  53 NE10      30.31S VSB 1/2
IMPERIAL       SUNNY     56  42  59 NE12      30.33R
LEXINGTON      SUNNY     57  47  69 NE14      30.28S
MCCOOK         CLOUDY    55  47  74 NE15      30.30R
OGALLALA       SUNNY     56  41  58 NE7       30.33S
$$

NEZ005>010-023>029-035>040-094-151700-
NORTH CENTRAL NEBRASKA

CITY           SKY/WX    TMP DP  RH WIND       PRES   REMARKS
VALENTINE      SUNNY     58  35  42 NE12      30.31S
AINSWORTH      SUNNY     54  40  59 NE9       30.31S
BROKEN BOW     SUNNY     59  40  49 NE10      30.28R
O`NEILL        SUNNY     56  46  69 N10       30.30S
ORD            SUNNY     57  42  57 NE12      30.27R
THEDFORD       SUNNY     56  40  54 NE10      30.32S
$$

NEZ041-046>049-061>064-073>077-083>087-151700-
SOUTH CENTRAL NEBRASKA

CITY           SKY/WX    TMP DP  RH WIND       PRES   REMARKS
GRAND ISLAND   MOSUNNY   59  48  67 N16       30.26R
AURORA         MOSUNNY   58  48  70 NE14      30.25R
HASTINGS       MOSUNNY   58  47  66 NE20      30.25R
HEBRON         CLOUDY    57  48  73 N12G22    30.21R
HOLDREGE       PTSUNNY   56  47  72 NE16      30.27R
KEARNEY *      MOSUNNY   57  46  67 N16       30.27R
YORK           MOSUNNY   57  50  77 N17       30.23S
$$

NEZ011>018-030>034-042>045-151700-
NORTHEAST NEBRASKA

CITY           SKY/WX    TMP DP  RH WIND       PRES   REMARKS
NORFOLK        MOSUNNY   57  46  66 N18G26    30.25R
ALBION         SUNNY     56  45  65 N13       30.26R
BLAIR          MOSUNNY   58  50  75 N14G23    30.20R
COLUMBUS *     SUNNY     59  48  67 NE12      30.24S
FREMONT        PTSUNNY   57  48  72 NE8G16    30.22R
TEKAMAH        SUNNY     60  48  64 NE13      30.21S
WAYNE          PTSUNNY   57  47  71 N13       30.26S
$$

NEZ050>053-065>068-078-088>093-151700-
SOUTHEAST NEBRASKA

CITY           SKY/WX    TMP DP  RH WIND       PRES   REMARKS
LINCOLN        CLOUDY    58  49  72 N16       30.21R
OMAHA EPPLEY   PTSUNNY   57  48  72 N16       30.19R
BEATRICE       CLOUDY    58  51  76 N15G24    30.18S
FALLS CITY     CLOUDY    66  60  81 N10       30.12R
NEBRASKA CITY  CLOUDY    56  51  81 N10G21    30.17R
PLATTSMOUTH    CLOUDY    55  50  81 N15       30.18R
$$

NEZ044-045-051>053-067-151700-
OMAHA AREA

CITY           SKY/WX    TMP DP  RH WIND       PRES   REMARKS
OMAHA EPPLEY   PTSUNNY   57  48  72 N16       30.19R
BLAIR          MOSUNNY   58  50  75 N14G23    30.20R
FREMONT        PTSUNNY   57  48  72 NE8G16    30.22R
OFFUTT AFB     PTSUNNY   57  54  88 N9G23     30.19R
PLATTSMOUTH    CLOUDY    55  50  81 N15       30.18R
WAHOO          PTSUNNY   59  49  67 N15       30.21R
$$



USA.gov is the U.S. government's official web portal to all federal, state and local government web resources and services.